STARLINK-33830, 63587

Orbit data source: Space-Track

STARLINK-33830, 63587 is a payload satellite owned by SpaceX/Seattle (US) in LEO that was launched on Mon, 14 Apr 2025 UTC via an FALCON 9 launch vehicle from the Air Force Eastern Test Range (AFETR). Payload-class satellites include a variety of spacecraft equipped with specific instruments for various scientific and technological missions. These include communications satellites like Starlink; space stations such as the ISS; scientific satellites like the Hubble; Earth observation satellites from companies like Planet Labs, Umbra, and HawkEye 360; GPS; miniature CubeSats for education and research; and military/defense satellites.

Loading next visibility...
Identifier
63587, 2025-076U
Orbit
LEO
Country
Flag of USUS
Related business
Manufacturer
SpaceX/Seattle
Mission
Operational Commercial Communications
Bus & Motor
STARLINK V2MO, Unknown motor
Mass
575 kg wet, ~530 kg dry
Launch date (UTC)
2025-04-14 (7 months ago)
Launch vehicle
FALCON 9
Launch site
Air Force Eastern Test Range (AFETR)
Object type
Payload
Rocket body
Debris
Shape & HBR
Box + 2 Pan, 17.7 m
Radar Cross Section
36.964 m², Large (>1 m²)

Expand to show TLE details & history
Last TLE update: 19 hours ago

TLE from 19 hours ago
0 STARLINK-33830
1 63587U 25076U   25301.56453976  .00043650  00000-0  15843-2 0  9996
2 63587  43.0022 347.8598 0001560 267.3620  92.7053 15.27622122 31622
Epoch: 2025-10-28T13:32Z
TLE epoch observation values (Epoch: 2025-10-28T13:32:56.235Z)
Latitude
-0.00002°
Longitude
107.47525°
Altitude
482.749 km
Speed
7.626 km/s
True Right ascension
23h 11m 26s
True Declination
0° 00' 00"
Sunlit
Object was in full shadow at epoch
Visualization orbit readout
Latitude
Unknown
Longitude
Unknown
Altitude
Unknown
Speed
Unknown
Apparent Right ascension
Unknown
Apparent Declination
Unknown
Sunlit
N/A
Visualization observer readout
Local Sidereal Time
04:09:18
Azimuth
Unknown
Elevation
Unknown
Doppler factor
Unknown
Orbital elements
Apogee altitude
485.938 km
Perigee altitude
483.797 km
Semi-major axis
6,863.005 km
Eccentricity
0.00016
Inclination
43.0022°
RAAN
347.8598°
Arg. of periapsis
267.362°
True anomaly
92.72316°
Mean anomaly
92.7053°
Eccentric anomaly
92.71423°
Mean motion
3.81744 °/min
Orbital period
94.3 mins
BSTAR
0.0015843
Loading maneuver chart data...
Computing Atmospheric mass density...
Loading historical data...
Loading historical data...
Loading historical data...
Loading historical data...
Loading historical data...
Loading historical data...
Loading historical data...

Documentation

Showing up to 5 results
|